[[{"header":{"parameterUnit":"m.s-1","parameterCategory":1,"la1":30.2991,"la2":30.254,"lo1":-89.0895,"lo2":-89.0444,"dy":0.0017,"dx":0.0017,"nx":28,"ny":28,"refTime":"2025-06-02T21:00:00:Z","depth":0,"parameterNumber":2,"parameterNumberName":"U-component_of_WINDS"},"data":[0,0,0,0,0,0,0,0,0,0,0,0,0,0,0,0,0,0,0,0,0,0,0,0,0,0,0,0,0,0,0,0,0,0,0,0,0,0,0,0,0,0,0,0,0,0,0,0,0,0,0,0,0,0,0,0,0,0,-5.9618,-5.9619,0,-5.964,-5.964,-5.9641,-5.9556,-5.9553,-5.9551,-5.9548,-5.9568,-5.957,-5.9573,0,0,0,0,0,0,0,0,0,0,0,0,0,-5.9501,-5.9503,-5.9618,-5.9619,-5.9619,-5.964,-5.964,-5.9641,-5.9556,-5.9553,-5.955,-5.9547,-5.9567,-5.957,-5.9574,0,0,0,0,0,0,0,0,0,0,0,0,0,-5.954,-5.9504,-5.9618,-5.9579,-5.9576,-5.964,-5.964,-5.9641,-5.9557,-5.9553,-5.9549,-5.9546,-5.9566,-5.957,-5.9574,-5.9676,0,0,-5.9587,-5.9589,0,0,0,0,0,0,0,0,-5.9538,-5.9544,-5.9585,-5.9582,-5.9579,-5.9591,-5.9606,-5.9652,-5.9558,-5.9564,-5.9548,-5.9544,-5.9578,-5.9581,-5.9594,-5.9677,-5.9677,-5.9587,-5.959,-5.9592,-5.9593,0,0,0,0,0,0,0,-5.9535,-5.9543,-5.9627,-5.9586,-5.9582,-5.956,-5.9561,-5.9614,-5.9592,-5.9563,-5.9557,-5.9561,-5.9576,-5.959,-5.9593,-5.9678,-5.9587,-5.9591,-5.9594,-5.9595,-5.9843,-5.9847,0,0,0,0,0,0,-5.9538,-5.9541,-5.9626,-5.9628,-5.9549,-5.9565,-5.9567,-5.9591,-5.9591,-5.9588,-5.9564,-5.9557,-5.9584,-5.9589,-5.9594,-5.971,-5.9592,-5.9596,-5.9598,-5.9839,-5.9844,-5.9848,0,0,0,0,0,0,-5.9536,-5.9547,-5.9625,-5.9583,-5.9591,-5.9571,-5.9599,-5.9594,-5.9607,-5.9592,-5.9587,-5.9582,-5.9581,-5.9588,-5.9656,-5.971,-5.9598,-5.9602,-5.9834,-5.9841,-5.9846,-5.9946,0,0,0,0,0,0,-5.9533,-5.9546,-5.9585,-5.9584,-5.9594,-5.9688,-5.9603,-5.9597,-5.9615,-5.9606,-5.9608,-5.9605,-5.9579,-5.965,-5.966,-5.9714,-5.9605,-5.9829,-5.9837,-5.9844,-5.9938,-5.9955,-5.9969,0,0,0,0,0,-5.9529,-5.9612,-5.9588,-5.9598,-5.9642,-5.9691,-5.9696,-5.9666,-5.962,-5.9658,-5.9648,-5.9604,-5.9704,-5.9657,-5.9668,-5.9724,-5.9826,-5.9835,-5.9844,-5.9931,-5.9951,-5.9969,0,0,0,0,0,0,-5.9618,-5.9611,-5.9584,-5.9669,-5.9682,-5.9677,-5.9724,-5.9689,-5.9714,-5.9704,-5.9665,-5.9666,-5.974,-5.974,-5.9688,-5.9822,-5.9756,-5.9768,-5.9819,-5.9838,-5.9854,-5.985,-5.9609,0,0,0,0,0,-5.9648,-5.969,-5.9681,-5.9757,-5.9765,-5.9744,-5.9764,-5.974,-5.975,-5.9755,-5.975,-5.9761,-5.9794,-5.9817,-5.9847,-5.9939,-5.9936,-5.9983,-5.9999,-6.0012,-6.0021,-6.0067,-6.0086,-5.9878,-5.9878,-5.9878,0,0,-5.971,-5.9711,-5.9739,-5.9775,-5.9782,-5.9824,-5.9748,-5.9797,-5.9827,-5.9762,-5.9824,-5.9822,-5.9832,-5.9912,-5.9947,-5.9913,-6.0079,-6.0023,-6.0034,-6.0035,-6.0078,-6.0098,-6.0115,-5.9884,-5.9883,-5.9882,0,0,-5.9842,-5.9849,-5.9912,-5.9921,-5.9932,-5.9918,-5.9934,-5.9934,-5.993,-5.9994,-5.9945,-5.9981,-6.004,-6.0048,-6.006,-6.0198,-6.0158,-6.021,-6.029,-6.0336,-6.0352,-6.0366,-6.0412,-6.043,-6.022,-6.022,-6.022,0,-5.9916,-5.9979,-5.9948,-6.0,-6.0016,-5.9961,-6.0024,-6.0034,-6.0054,-6.0066,-6.003,-6.0102,-6.0105,-6.0185,-6.0219,-6.0232,-6.0246,-6.0207,-6.0353,-6.0366,-6.0379,-6.0422,-6.044,-6.0226,-6.0225,-6.0225,-6.0224,0,-6.0068,-6.0112,-6.0162,-6.0184,-6.0206,-6.0263,-6.024,-6.0267,-6.0242,-6.0232,-6.0296,-6.0299,-6.0327,-6.0345,-6.0321,-6.0422,-6.04,-6.036,-6.0292,-6.0405,-6.0445,-6.0462,-6.0234,-6.0232,-6.0231,-6.0229,0,0,-6.0253,-6.0259,-6.0278,-6.0286,-6.0296,-6.0329,-6.0384,-6.0413,-6.0435,-6.0452,-6.0495,-6.0547,-6.0509,-6.0523,-6.05,-6.054,-6.0646,-6.0494,-6.0493,-6.0518,-6.0753,-6.0781,-6.0801,-6.0621,-6.0625,-6.0627,-6.0751,0,-6.038,-6.0474,-6.0449,-6.0541,-6.058,-6.053,-6.0577,-6.0588,-6.058,-6.0612,-6.0603,-6.0639,-6.0588,-6.0596,-6.0634,-6.0625,-6.0692,-6.0616,-6.0658,-6.066,-6.0652,-6.0822,-6.0852,-6.0969,-6.0767,-6.077,-6.0772,0,-6.054,-6.0564,-6.0661,-6.0663,-6.0679,-6.0722,-6.0746,-6.0778,-6.0789,-6.078,-6.0797,-6.0766,-6.0818,-6.0755,-6.0825,-6.0774,-6.079,-6.0789,-6.0792,-6.0791,-6.0719,-6.0822,-6.1006,-6.1022,-6.0797,-6.0795,-6.0793,0,-6.0661,-6.0718,-6.0782,-6.0792,-6.0798,-6.0829,-6.0832,-6.084,-6.0859,-6.0881,-6.0892,-6.092,-6.0934,-6.0956,-6.0933,-6.0889,-6.1006,-6.094,-6.0997,-6.0998,-6.102,-6.1018,-6.1205,-6.1039,-6.1038,-6.1038,-6.1038,0,-6.0803,-6.0863,-6.0836,-6.0876,-6.0941,-6.0913,-6.0978,-6.0976,-6.0983,-6.102,-6.098,-6.1015,-6.0985,-6.1017,-6.1,-6.1059,-6.1067,-6.106,-6.1053,-6.1061,-6.1061,-6.1067,-6.1057,-6.1043,-6.1042,-6.1041,-6.104,0,-6.0947,-6.0932,-6.0998,-6.1,-6.1001,-6.1049,-6.1049,-6.1085,-6.1076,-6.1123,-6.1132,-6.1117,-6.1153,-6.1134,-6.1171,-6.1159,-6.1235,-6.122,-6.1231,-6.1225,-6.1282,-6.1275,-6.1475,-6.1499,-6.1321,-6.1323,-6.1325,0,-6.1036,-6.1081,-6.1088,-6.111,-6.1117,-6.1154,-6.1173,-6.1148,-6.1169,-6.1186,-6.1219,-6.1252,-6.1276,-6.1337,-6.1328,-6.1356,-6.1339,-6.1407,-6.1342,-6.1348,-6.1335,-6.1331,-6.1334,-6.1419,-6.1421,-6.1422,-6.1424,0,-6.1195,-6.1186,-6.1216,-6.1244,-6.1269,-6.1289,-6.1306,-6.1327,-6.1302,-6.1328,-6.1365,-6.1384,-6.1423,-6.1455,-6.148,-6.1482,-6.1448,-6.1445,-6.1459,-6.1464,-6.1467,-6.1463,-6.1262,-6.1439,-6.1438,-6.1437,-6.1436,-6.1435,-6.1312,-6.1349,-6.1359,-6.1394,-6.1404,-6.1421,-6.1454,-6.145,-6.1481,-6.151,-6.1494,-6.1536,-6.1546,-6.1575,-6.1583,-6.1615,-6.1587,-6.1608,-6.1613,-6.1617,-6.1623,-6.1467,-6.162,-6.1619,-6.1619,-6.1619,-6.1618,0,-6.1465,-6.147,-6.1502,-6.1528,-6.1555,-6.1524,-6.1541,-6.1565,-6.1604,-6.1616,-6.1642,-6.1684,-6.1715,-6.1711,-6.1739,-6.1766,-6.1751,-6.1773,-6.1769,-6.1769,-6.1648,-6.1631,-6.1785,-6.1785,-6.1785,-6.1785,-6.1785,-6.1785,-6.1548,-6.1608,-6.16,-6.1665,-6.1669,-6.1711,-6.1723,-6.1738,-6.1748,-6.1797,-6.1823,-6.1821,-6.1826,-6.1854,-6.1881,-6.1879,-6.189,-6.1918,-6.1909,-6.1795,-6.1778,-6.1762,-6.1746,-6.1921,-6.1922,-6.2027,-6.2028,-6.2029]},{"header":{"parameterUnit":"m.s-1","parameterCategory":1,"la1":30.2991,"la2":30.254,"lo1":-89.0895,"lo2":-89.0444,"dy":0.0017,"dx":0.0017,"nx":28,"ny":28,"refTime":"2025-06-02T21:00:00:Z","depth":0,"parameterNumber":3,"parameterNumberName":"V-component_of_WINDS"},"data":[0,0,0,0,0,0,0,0,0,0,0,0,0,0,0,0,0,0,0,0,0,0,0,0,0,0,0,0,0,0,0,0,0,0,0,0,0,0,0,0,0,0,0,0,0,0,0,0,0,0,0,0,0,0,0,0,0,0,2.8265,2.8266,0,2.8345,2.8346,2.8347,2.8378,2.8378,2.8378,2.8377,2.8454,2.8457,2.8459,0,0,0,0,0,0,0,0,0,0,0,0,0,2.8135,2.8137,2.8265,2.8266,2.8267,2.8345,2.8346,2.8347,2.8378,2.8378,2.8378,2.8377,2.8454,2.8456,2.8459,0,0,0,0,0,0,0,0,0,0,0,0,0,2.8201,2.8138,2.8264,2.8292,2.8295,2.8344,2.8346,2.8347,2.8378,2.8378,2.8377,2.8377,2.8453,2.8456,2.8459,2.8486,0,0,2.847,2.8471,0,0,0,0,0,0,0,0,2.8197,2.8205,2.8287,2.829,2.8294,2.8351,2.8328,2.8394,2.8378,2.8346,2.8377,2.8377,2.842,2.8426,2.8442,2.849,2.8493,2.847,2.8472,2.8473,2.8474,0,0,0,0,0,0,0,2.8192,2.8202,2.8296,2.8288,2.8292,2.8299,2.8308,2.8341,2.8384,2.8349,2.8352,2.8361,2.8422,2.8438,2.8444,2.8494,2.847,2.8473,2.8475,2.8476,2.857,2.8571,0,0,0,0,0,0,2.8184,2.8198,2.8294,2.8299,2.8244,2.8301,2.8312,2.8333,2.8383,2.8391,2.8361,2.8362,2.8433,2.844,2.8446,2.8483,2.8473,2.8477,2.8478,2.857,2.857,2.8571,0,0,0,0,0,0,2.8181,2.8192,2.829,2.8249,2.8262,2.8304,2.8328,2.8335,2.8351,2.8393,2.84,2.837,2.8433,2.8442,2.8477,2.8486,2.8478,2.8481,2.8569,2.857,2.8571,2.8554,0,0,0,0,0,0,2.8177,2.8191,2.8202,2.8249,2.8264,2.832,2.8328,2.8336,2.8358,2.836,2.8403,2.841,2.8433,2.8472,2.848,2.849,2.8484,2.8569,2.857,2.857,2.8554,2.8554,2.8554,0,0,0,0,0,2.8172,2.8193,2.8203,2.8214,2.8279,2.8321,2.8329,2.8357,2.8358,2.8369,2.8396,2.8409,2.8483,2.8475,2.8485,2.8496,2.8568,2.8569,2.857,2.8554,2.8554,2.8554,0,0,0,0,0,0,2.8143,2.8199,2.8211,2.8247,2.8279,2.8326,2.8341,2.8356,2.8387,2.8387,2.8419,2.8428,2.8461,2.8482,2.8472,2.8525,2.8527,2.853,2.8511,2.8511,2.8511,2.8505,2.8487,0,0,0,0,0,2.8141,2.8171,2.8218,2.8246,2.8262,2.8299,2.8317,2.8336,2.837,2.8383,2.8413,2.8444,2.8475,2.8494,2.8524,2.8557,2.8567,2.8569,2.857,2.8569,2.8572,2.8592,2.8594,2.8575,2.8575,2.8574,0,0,2.8136,2.8171,2.8188,2.8241,2.8268,2.8298,2.831,2.834,2.8362,2.8387,2.8423,2.8446,2.8483,2.8518,2.8534,2.8536,2.858,2.8571,2.857,2.8573,2.8593,2.8595,2.8597,2.8575,2.8575,2.8575,0,0,2.8144,2.8173,2.82,2.8228,2.827,2.8295,2.8301,2.8347,2.8363,2.84,2.842,2.8447,2.8498,2.8525,2.8545,2.8565,2.8577,2.8573,2.8574,2.8593,2.8595,2.8596,2.8604,2.8606,2.8576,2.8576,2.8575,0,2.8133,2.818,2.8211,2.8242,2.8265,2.8292,2.8319,2.8344,2.8392,2.8407,2.8409,2.8476,2.8503,2.8545,2.855,2.8565,2.8573,2.8568,2.8592,2.8594,2.8596,2.8604,2.8607,2.8575,2.8575,2.8575,2.8575,0,2.8165,2.8197,2.8214,2.8263,2.8288,2.8316,2.8351,2.8372,2.839,2.8414,2.8452,2.8485,2.8524,2.8535,2.8551,2.858,2.858,2.8586,2.8588,2.8597,2.8605,2.8608,2.8574,2.8574,2.8574,2.8574,0,0,2.8154,2.8223,2.8228,2.8252,2.8301,2.8326,2.8356,2.8396,2.8414,2.8447,2.8473,2.8518,2.8525,2.8548,2.8567,2.8584,2.8599,2.8589,2.859,2.859,2.8634,2.8629,2.8632,2.8608,2.8609,2.8609,2.8631,0,2.8168,2.8225,2.8256,2.8299,2.833,2.8357,2.8383,2.8416,2.844,2.8469,2.8495,2.8527,2.8533,2.8548,2.8566,2.8593,2.8608,2.8592,2.8632,2.8633,2.8622,2.8636,2.863,2.8649,2.8634,2.8635,2.8635,0,2.8193,2.8228,2.8276,2.8324,2.8338,2.8361,2.8401,2.8428,2.8466,2.8483,2.8509,2.8529,2.8561,2.8562,2.8607,2.8595,2.8613,2.8629,2.8631,2.8635,2.8635,2.8641,2.8655,2.8658,2.864,2.864,2.864,0,2.8181,2.8241,2.8278,2.8297,2.8353,2.8369,2.8393,2.8431,2.8454,2.8488,2.8503,2.854,2.856,2.8588,2.8617,2.8614,2.8659,2.8661,2.8674,2.8673,2.8681,2.8681,2.8699,2.8693,2.8693,2.8693,2.8693,0,2.8194,2.8222,2.8274,2.8296,2.8329,2.8363,2.8394,2.842,2.8454,2.8481,2.8506,2.8531,2.8568,2.8597,2.862,2.8654,2.8663,2.8677,2.8682,2.8675,2.8673,2.8687,2.8686,2.8693,2.8693,2.8693,2.8693,0,2.8187,2.8222,2.8264,2.8316,2.8329,2.8351,2.8394,2.8417,2.8443,2.8478,2.8488,2.8528,2.8565,2.8597,2.8644,2.8659,2.8695,2.8701,2.8683,2.8686,2.8696,2.8695,2.8724,2.873,2.872,2.872,2.872,0,2.8193,2.8216,2.827,2.8292,2.8316,2.8349,2.8374,2.8409,2.8432,2.8479,2.8496,2.8534,2.8567,2.8624,2.8657,2.8693,2.8701,2.8709,2.8707,2.8699,2.8702,2.8701,2.8704,2.8709,2.8709,2.8709,2.8709,0,2.82,2.8218,2.8252,2.8294,2.8323,2.8356,2.8391,2.8406,2.8448,2.8473,2.8512,2.8538,2.8588,2.8625,2.8666,2.869,2.8706,2.871,2.8715,2.8707,2.8695,2.8702,2.8683,2.8709,2.8709,2.8709,2.8709,2.8709,2.82,2.8223,2.8265,2.8304,2.8334,2.8366,2.839,2.8421,2.8455,2.8499,2.8518,2.8557,2.8596,2.8653,2.8676,2.8707,2.871,2.8717,2.8719,2.872,2.8719,2.8691,2.8715,2.8715,2.8715,2.8715,2.8715,0,2.821,2.8239,2.8274,2.8323,2.8353,2.8369,2.8408,2.8432,2.8467,2.8502,2.8535,2.858,2.8618,2.8655,2.8694,2.8712,2.8721,2.8721,2.872,2.8726,2.8714,2.8706,2.8714,2.8714,2.8714,2.8714,2.8714,2.8714,2.8218,2.8257,2.8279,2.8334,2.8363,2.8403,2.8425,2.8454,2.8483,2.8533,2.8566,2.859,2.8627,2.8669,2.8705,2.8715,2.8728,2.8727,2.8738,2.8726,2.8726,2.8726,2.8719,2.8729,2.8729,2.8748,2.8748,2.8748]}]]